sat.trackr.live / text

‹ back to catalog

COSMOS 2599 (RODNIK-S *)

NORAD 66649 · 2025-273C

PAYLOAD ACTIVE UNKNOWN

§ Identity

Operator
Country
CIS
Launch date
2025-11-25
Launch site
PLMSC
Launch vehicle
Mass (kg)
RCS (m²)

External: N2YO · Heavens-Above · Gunter

§ Orbital elements

Epoch: 2026-05-25T02:01:16.253760Z

Period
115.86 min
Inclination
82.5034°
Eccentricity
0.0014616
Mean motion
12.42896711 rev/d
Perigee alt
1,482.8 km
Apogee alt
1,505.9 km
Semi-major
7,872.5 km
B*
7.3067e-5
RAAN
184.9908°
Arg perigee
252.0193°
Mean anomaly
107.9294°
Rev number
2,242

§ Raw data

COSMOS 2599 (RODNIK-S *)1 66649U 25273C   26145.08421590  .00000020  00000+0  73067-4 0  99952 66649  82.5034 184.9908 0014616 252.0193 107.9294 12.42896711 22427

JSON: /api/v1/satellites/66649 · /tle

For live sub-satellite position, see the globe view (requires WebGL).

§ Visibility from observer

Set your observer location to see the next 7 days of passes ≥ 10°. The values pass through the URL so the page stays shareable.

No JS? Fill the form by hand. The geolocation button needs JavaScript.